User: anonymous   Login
Location: Bamazo
(6.7448°N, 10.8189°W)
Time: 14:38:13
(UTC+00:00)
Language:

Delta 7925 Rocket - Orbit

View from above orbital plane
View from above orbital plane
View from above satellite
View from above satellite

Ground track
Ground track

The orbit data is extracted from the following two-line orbital elements,

1 24809U 97025B   20333.56362893 +.00000104 +00000-0 -71062-5 0  9996
2 24809 026.2938 123.4193 0666199 000.6691 359.4606 13.30065857143893
Epoch (UTC): 28 November 2020 13:31:37
Eccentricity: 0.0666199
inclination: 26.2938°
perigee height: 645 km
apogee height: 1648 km
right ascension of ascending node: 123.4193°
argument of perigee: 0.6691°
revolutions per day: 13.30065857
mean anomaly at epoch: 359.4606°
orbit number at epoch: 14389

The dashed part of the orbit path shows where the satellite is in the earth's shadow,  

DLR